Flag for Tajikistan Weather past 2 weeks in Dushanbe, Tajikistan

Now
27 °F

Clear.


Feels Like: 27 °F
Forecast: 21 / 44 °F
Wind: 1 mph from North

Location: Dushanbe Airport

Current Time: Jan 28, 2015 at 12:31:03 AM

Latest Report: Jan 27, 2015 at 11:30 PM


Visibility: 4 mi

Pressure: 30.24 "Hg

Humidity: 80%

Dew point: 21 °F

Location of DushanbeLocation

Historic Weather in Dushanbe — Graph

°F

Dushanbe temperature yesterday

Maximum temperature yesterday: 39 °F (at 2:00 PM)
Minimum temperature yesterday: 23 °F (at 6:00 AM)
Average temperature yesterday: 31 °F

Past Weeks' High & Low Weather Summary

 TemperatureHumidityPressure
High59 °F (Jan 17, 2:30 PM)100% (Jan 13, 7:00 PM)30.51 "Hg (Jan 13, 7:00 PM)
Low23 °F (Jan 27, 6:00 AM)18% (Jan 17, 2:00 PM)29.98 "Hg (Jan 19, 7:30 PM)
Average39 °F77%30.25 "Hg
* Reported Jan 12 11:00 PM — Jan 27 11:30 PM, Dushanbe, Weather by CustomWeather, © 2014

Note: Actual official high and low records may vary slightly from our data, if they occured in-between our weather recording intervals... More about our weather records

Advertising

Dushanbe weather history for previous 24 hours

 ConditionsComfort  
Time TempWeatherWind HumidityBarometerVisibility
11:30 PM
Jan 27
27 °FClear.1 mph80%30.24 "Hg4 mi
11:00 PM28 °FClear.3 mph74%30.24 "Hg4 mi
10:30 PM28 °FClear.1 mph80%30.24 "Hg4 mi
10:00 PM28 °FClear.1 mph80%30.24 "Hg4 mi
9:30 PM28 °FClear.1 mph80%30.27 "Hg4 mi
9:00 PM30 °FClear.1 mph75%30.27 "Hg4 mi
8:30 PM30 °FClear.3 mph64%30.27 "Hg4 mi
8:00 PM32 °FClear.3 mph60%30.24 "Hg3 mi
7:30 PM32 °FClear.3 mph60%30.24 "Hg3 mi
7:00 PM34 °FClear.1 mph56%30.24 "Hg3 mi
6:30 PM32 °FClear.6 mph64%30.24 "Hg5 mi
6:00 PM32 °FClear.3 mph60%30.24 "Hg5 mi
5:30 PM36 °FClear.6 mph48%30.21 "HgN/A
5:00 PM37 °FClear.6 mph48%30.24 "HgN/A
4:30 PM39 °FClear.1 mph39%30.24 "HgN/A
4:00 PM39 °FClear.3 mph39%30.24 "Hg5 mi
3:30 PM39 °FClear.1 mph48%30.24 "Hg4 mi
3:00 PM39 °FClear.3 mph45%30.24 "Hg3 mi
2:30 PM39 °FClear.3 mph48%30.24 "Hg3 mi
2:00 PM39 °FClear.1 mph39%30.27 "Hg3 mi
1:30 PM37 °FClear.1 mph52%30.27 "Hg3 mi
1:00 PM37 °FFog.3 mph56%30.30 "Hg2 mi
12:30 PM36 °FFog.3 mph56%30.30 "Hg2 mi
12:00 PM34 °FFog.3 mph60%30.33 "Hg2 mi
11:30 AM32 °FIce fog.3 mph64%30.36 "Hg2 mi
11:00 AM32 °FIce fog.3 mph75%30.36 "Hg2 mi
10:30 AM30 °FIce fog.3 mph75%30.36 "Hg2 mi
10:00 AM28 °FIce fog.1 mph74%30.36 "Hg1 mi
9:30 AM28 °FIce fog.3 mph74%30.36 "Hg2 mi
9:00 AM27 °FIce fog.1 mph80%30.36 "Hg1 mi
8:30 AM25 °FIce fog.1 mph80%30.36 "Hg1 mi
7:30 AM23 °FIce fog.3 mph80%30.36 "Hg2 mi
7:00 AM25 °FPassing clouds.3 mph80%30.36 "Hg4 mi
6:30 AM25 °FPassing clouds.3 mph86%30.36 "Hg4 mi
6:00 AM23 °FIce fog.3 mph93%30.36 "Hg3 mi
5:30 AM25 °FIce fog.3 mph86%30.36 "Hg3 mi
5:00 AM27 °FPassing clouds.3 mph86%30.36 "Hg4 mi
4:30 AM27 °FPartly cloudy.1 mph80%30.39 "Hg4 mi
4:00 AM27 °FIce fog.3 mph93%30.39 "Hg3 mi
3:30 AM28 °FIce fog.3 mph93%30.39 "Hg2 mi
3:00 AM30 °FIce fog.3 mph86%30.39 "Hg3 mi
2:30 AM30 °FIce fog.3 mph93%30.39 "Hg2 mi
2:00 AM30 °FLight snow. Ice fog.1 mph93%30.42 "Hg2 mi
1:30 AM30 °FLight snow. Ice fog.3 mph93%30.42 "Hg2 mi
1:00 AM30 °FLight snow. Ice fog.1 mph93%30.42 "Hg2 mi
12:30 AM30 °FLight snow. Ice fog.1 mph93%30.45 "Hg1 mi
12:00 AM30 °FLight snow. Ice fog.1 mph93%30.45 "Hg1 mi
Weather by CustomWeather, © 2014

See weather overviewHow to use our weather pages